Simultaneous Nadir Overpasses (SNOs) Predictions

Prediction of SNOs between LANDSAT-8 and METOP-A Satellite Orbit:

Table of predicted SNOs for the next 14.0 days since TLE Epoch: 5/22/2015
Index Date (LANDSAT-8) Time (LANDSAT-8) Lat,Lon (LANDSAT-8) SZA (LANDSAT-8 ) Date (METOP-A) Time (METOP-A) Lat,Lon (METOP-A) SZA (METOP-A ) Distance(km) Time Diff (sec)
1 05/23/2015 07:55:08 81.19, 102.14 62.98 05/23/2015 07:53:58 81.19, 102.32 62.97 3.23 70
2 05/23/2015 08:44:35 -81.19, -90.22 117.03 05/23/2015 08:44:38 -81.20, -90.10 117.01 2.21 3
3 05/26/2015 03:29:24 81.18, 168.49 62.45 05/26/2015 03:28:19 81.18, 168.61 62.44 2.12 65
4 05/26/2015 04:18:50 -81.21, -23.48 117.50 05/26/2015 04:18:58 -81.20, -23.42 117.49 0.99 8
5 05/28/2015 23:03:38 81.19,-124.90 62.00 05/28/2015 23:02:38 81.19,-124.78 61.99 2.10 60
6
